Wind_Speed
35 35 36 36 37 38 38 39 39 39 39 39 40 40 40 40 40 40 40 40 40 40 40 40 40 40 40 41 41 41 42 42 42 42 42 41 41 41 41 40 40 40 40
36 36 36 36 36 37 39 39 39 40 40 40 40 40 39 40 41 41 41 41 41 41 41 41 41 42 42 42 42 42 42 42 42 41 41 41 41 41 40 40 39 39 39
35 36 36 36 37 37 38 39 39 40 40 41 41 40 40 40 41 42 42 42 42 42 42 42 42 43 43 43 43 42 42 41 41 41 41 42 42 42 41 41 40 39 40
35 35 36 36 37 38 38 39 40 40 40 40 40 40 41 41 41 41 41 41 42 42 42 43 43 43 43 43 42 42 42 42 41 41 41 41 41 41 41 41 40 40 40
36 36 36 37 37 38 38 38 38 39 39 38 38 39 39 40 40 41 41 42 42 43 43 43 43 42 41 41 41 41 42 41 41 40 40 40 40 40 41 40 40 39 40
36 36 36 37 37 37 37 37 37 37 38 37 37 37 37 38 39 40 40 41 41 42 42 41 41 40 40 40 40 40 39 39 39 39 39 39 39 39 39 39 39 38 38
35 36 36 36 36 36 35 35 36 36 37 37 37 37 37 38 39 40 41 41 41 41 40 39 39 39 39 39 39 39 38 38 38 38 38 38 37 37 37 37 37 37 36
35 36 35 35 35 35 35 35 36 36 37 37 37 37 37 37 38 38 39 40 40 39 38 38 38 38 38 38 38 38 38 38 37 37 37 36 36 36 36 36 35 35 35
35 35 35 35 35 35 35 35 35 35 36 36 36 36 37 37 38 39 39 39 38 38 38 37 37 37 37 37 37 37 37 37 37 36 36 35 34 34 35 34 33 33 33
34 34 35 35 35 35 35 35 35 34 35 36 36 37 37 38 38 39 39 38 37 37 37 37 36 37 37 37 37 36 35 35 36 35 35 35 34 34 33 33 33 32 32
34 34 34 34 35 34 34 34 35 35 35 35 36 37 37 38 38 38 38 37 37 36 35 35 36 36 36 36 36 35 35 34 34 34 34 34 33 33 32 32 31 31 31
33 33 34 34 35 34 33 33 34 34 35 35 36 37 37 37 37 37 37 37 37 36 35 35 35 35 35 35 35 35 35 34 34 34 33 33 32 31 31 31 30 30 30
31 32 33 34 34 33 33 33 34 34 35 35 35 36 36 36 36 36 36 36 36 36 36 35 35 35 35 34 34 34 34 34 33 33 32 31 31 31 31 30 30 29 29
30 31 32 32 33 33 34 34 34 34 34 35 35 36 36 36 36 36 36 36 36 35 35 34 34 35 35 34 33 33 33 32 32 31 31 30 31 30 30 30 29 29 29
30 30 31 31 32 32 33 33 33 34 34 34 34 35 35 35 35 36 35 35 34 33 33 32 32 32 32 31 30 30 31 31 31 31 30 30 29 29 29 29 29 28 28
30 30 31 31 32 31 31 31 31 32 33 33 33 33 33 33 33 33 32 32 31 30 30 29 29 29 28 28 28 28 28 28 28 29 29 29 29 28 28 28 28 27 27
30 31 31 31 31 30 30 30 30 30 31 31 31 31 31 31 31 31 30 29 29 28 28 28 28 28 27 26 26 26 26 26 26 27 27 27 27 27 28 28 28 27 27
30 30 30 30 30 29 29 29 28 29 29 29 30 30 29 29 29 28 28 27 27 27 27 27 27 27 26 25 25 25 25 24 25 25 25 25 26 26 26 26 26 26 26
29 29 29 29 28 28 28 28 28 28 28 27 28 28 28 27 27 27 27 26 26 26 26 26 26 25 25 25 24 24 24 24 24 24 24 24 24 24 24 24 24 24 24
28 28 28 28 28 28 28 28 27 27 26 26 26 26 26 26 26 26 26 25 25 24 24 24 24 24 24 24 23 23 23 23 23 23 22 22 22 22 22 22 22 22 22
27 27 28 28 27 27 27 26 25 25 25 25 25 25 25 24 24 24 24 24 23 23 23 23 23 23 23 22 22 21 22 22 21 21 21 21 21 20 20 21 20 20 19
26 26 26 26 26 25 25 24 24 24 24 24 24 24 24 23 23 23 23 22 22 22 22 22 22 21 21 21 21 21 21 20 20 20 20 19 19 19 19 19 19 18 18
24 24 24 24 24 23 23 23 22 22 23 23 23 23 23 22 22 22 21 21 21 21 21 21 21 21 20 21 21 20 20 19 19 19 19 18 18 17 17 17 17 18 17
21 21 21 21 21 21 21 22 22 22 22 22 22 22 22 21 21 21 20 20 20 20 20 20 20 19 19 20 20 20 19 19 18 18 17 17 16 16 16 16 16 16 15
20 20 20 20 20 20 21 21 22 22 22 22 22 22 22 21 20 20 19 19 19 20 20 20 20 19 18 18 18 18 18 18 17 17 16 15 15 15 15 15 15 14 14
19 19 19 19 20 20 21 21 21 22 22 22 22 21 21 20 20 19 19 19 19 19 19 18 18 18 17 17 17 17 17 17 16 16 15 15 15 15 15 14 13 13 12
Wind_Direction
257 257 258 259 259 257 258 259 261 263 264 265 266 267 268 268 269 271 272 273 274 276 278 278 278 279 280 281 282 283 284 284 283 282 282 282 282 282 282 281 282 282 282
257 258 259 259 260 260 259 260 261 263 265 266 267 267 268 268 270 272 273 272 274 276 277 278 279 279 279 280 280 282 283 283 283 282 281 281 281 282 281 282 283 282 281
259 260 260 260 261 261 261 261 262 264 266 267 268 268 268 269 271 273 274 274 274 275 276 277 279 280 280 280 280 281 282 282 282 282 281 282 282 281 280 282 283 282 282
259 261 261 261 261 262 262 262 263 265 267 269 269 269 269 270 272 274 275 275 274 276 277 278 279 279 280 280 280 280 281 281 281 281 281 281 281 281 280 281 281 282 283
260 261 262 262 262 262 262 263 264 266 267 269 270 270 270 270 272 274 275 275 275 277 278 279 279 279 280 280 281 281 281 281 281 281 281 281 280 280 280 281 281 281 282
260 261 262 263 264 264 262 263 265 266 268 270 270 270 270 271 272 274 275 276 277 278 278 278 279 280 280 281 282 282 282 281 281 282 282 281 281 280 280 281 280 280 281
260 261 261 262 262 263 262 263 264 266 268 270 270 270 270 272 273 275 276 278 278 277 277 277 278 279 280 281 281 281 281 281 282 282 282 281 280 281 281 281 281 281 281
260 261 261 261 261 262 263 263 265 267 268 269 269 270 271 272 275 276 278 279 277 277 277 278 279 280 281 282 281 281 281 282 282 282 282 281 280 281 281 281 281 281 281
261 261 261 261 261 262 263 264 266 268 269 269 270 270 272 274 275 278 279 279 277 277 279 280 280 280 281 281 281 281 282 282 283 283 282 281 280 280 280 281 281 281 281
260 261 262 262 263 264 264 264 266 268 269 270 271 272 273 275 277 279 279 278 278 278 279 280 281 281 281 281 281 282 282 282 281 281 281 280 279 279 280 280 280 281 281
260 260 262 263 264 265 265 266 267 268 269 270 271 273 274 276 276 277 278 278 278 277 278 280 281 282 282 281 281 281 281 281 279 279 279 279 279 279 280 281 281 282 282
262 262 263 264 264 264 266 268 269 270 270 272 273 274 276 277 277 278 278 278 277 277 278 279 280 280 281 281 280 280 281 281 280 280 279 279 279 279 279 280 281 283 283
265 264 265 265 265 265 267 269 271 272 273 273 275 275 276 276 277 279 279 277 275 276 277 278 279 280 280 281 280 280 281 281 280 279 279 279 279 279 279 279 280 282 282
267 266 265 264 266 267 268 270 272 273 274 275 275 276 276 277 278 279 278 276 275 275 276 278 280 281 281 281 280 280 280 280 279 278 278 278 278 278 279 280 280 281 281
267 266 265 266 269 270 271 272 273 274 275 276 276 276 277 277 277 278 278 277 276 276 277 278 280 282 282 282 282 281 280 279 279 278 278 279 279 278 279 280 280 280 280
268 268 268 268 269 271 271 272 273 275 275 276 276 276 277 277 277 278 278 277 276 276 277 278 280 282 282 282 283 283 283 281 280 280 280 279 278 278 278 279 279 279 280
269 269 268 267 268 270 271 272 273 275 275 276 276 276 277 278 278 278 277 276 275 275 277 278 280 281 281 282 283 284 284 284 284 282 280 278 278 278 279 279 278 279 280
270 270 268 267 268 269 270 271 273 275 276 276 275 276 277 277 278 278 277 275 274 275 276 277 278 280 281 283 283 284 284 285 285 284 281 279 278 279 279 280 279 280 281
269 268 267 267 266 267 269 270 273 275 276 275 275 276 277 276 276 277 277 276 274 274 275 276 277 279 280 282 282 283 284 285 286 286 284 282 281 281 281 281 281 279 279
267 267 266 265 265 266 268 270 272 274 274 275 277 277 276 275 275 276 277 276 276 276 275 275 277 279 279 280 281 283 285 286 286 286 286 284 283 284 284 283 284 281 280
268 267 265 264 264 266 267 269 270 272 273 274 276 275 274 275 275 276 277 277 277 277 275 276 277 277 277 278 280 283 285 285 285 285 285 284 284 284 284 284 284 282 281
268 266 264 263 264 265 266 267 269 271 272 273 272 272 273 274 275 275 276 277 277 277 276 276 276 276 275 276 279 282 285 284 285 286 285 284 283 283 284 284 284 281 281
269 265 264 263 262 264 265 266 269 271 272 271 270 270 271 272 274 275 275 275 275 275 274 275 275 276 275 276 277 280 282 282 284 286 285 284 284 284 285 285 283 281 280
269 267 265 263 262 263 264 266 269 271 271 270 270 269 269 271 273 274 274 274 274 275 275 275 274 274 275 277 277 278 280 281 282 285 284 283 283 285 286 286 285 283 281
268 266 263 262 261 263 265 267 269 269 269 270 269 268 268 270 271 272 272 272 274 276 276 274 272 271 273 277 278 278 278 280 282 282 281 282 282 283 286 285 284 284 280
267 266 264 262 262 263 266 267 268 269 269 268 267 267 268 268 269 270 270 272 274 275 276 274 272 269 270 275 278 279 279 280 279 279 279 279 280 282 283 282 282 283 282
Height
5628 5629 5631 5632 5633 5635 5636 5638 5639 5639 5640 5641 5642 5642 5642 5643 5643 5642 5642 5641 5641 5640 5639 5638 5637 5636 5634 5633 5631 5630 5628 5626 5625 5625 5622 5620 5618 5616 5615 5613 5612 5610 5609
5619 5620 5622 5623 5624 5625 5627 5628 5629 5630 5630 5631 5631 5632 5632 5632 5632 5632 5631 5631 5630 5629 5628 5627 5626 5625 5624 5622 5621 5619 5617 5615 5614 5613 5611 5609 5607 5605 5604 5603 5601 5600 5598
5610 5611 5612 5614 5615 5616 5617 5618 5619 5619 5620 5620 5621 5621 5621 5621 5622 5621 5620 5620 5619 5618 5617 5617 5615 5614 5613 5611 5609 5608 5606 5604 5602 5601 5600 5598 5596 5595 5594 5592 5591 5589 5588
5600 5601 5603 5604 5605 5606 5607 5608 5609 5609 5609 5610 5610 5610 5611 5611 5611 5610 5609 5609 5608 5607 5606 5605 5604 5603 5601 5599 5598 5596 5594 5593 5591 5590 5588 5587 5585 5583 5583 5582 5580 5579 5577
5591 5592 5593 5594 5595 5596 5597 5598 5598 5599 5599 5599 5600 5600 5600 5600 5600 5599 5599 5597 5597 5596 5595 5594 5592 5591 5589 5588 5586 5584 5583 5581 5580 5578 5577 5575 5574 5573 5572 5571 5569 5568 5567
5581 5582 5583 5584 5585 5586 5587 5587 5588 5589 5589 5589 5589 5589 5589 5589 5589 5588 5587 5587 5586 5585 5584 5583 5581 5580 5579 5577 5575 5573 5571 5570 5568 5567 5566 5564 5563 5562 5561 5559 5558 5558 5557
5571 5572 5573 5574 5575 5576 5576 5577 5578 5578 5579 5579 5579 5579 5579 5579 5578 5577 5576 5575 5575 5574 5573 5572 5571 5569 5568 5566 5564 5562 5561 5559 5558 5556 5555 5554 5553 5552 5550 5549 5548 5546 5546
5561 5562 5563 5564 5565 5566 5566 5567 5568 5568 5569 5569 5569 5569 5569 5568 5568 5567 5565 5565 5564 5563 5562 5561 5560 5559 5557 5555 5554 5552 5550 5549 5547 5546 5545 5544 5542 5541 5540 5539 5538 5536 5535
5551 5552 5553 5554 5555 5556 5557 5557 5558 5558 5559 5559 5559 5559 5559 5558 5557 5556 5555 5554 5553 5552 5551 5550 5549 5548 5546 5544 5543 5542 5540 5538 5536 5535 5534 5533 5532 5531 5530 5529 5528 5527 5526
5541 5542 5543 5544 5545 5546 5547 5547 5548 5548 5548 5549 5549 5549 5548 5547 5546 5545 5544 5543 5543 5542 5541 5540 5538 5537 5535 5533 5532 5531 5530 5528 5527 5525 5524 5523 5522 5521 5520 5519 5518 5517 5516
5532 5533 5534 5535 5535 5536 5537 5537 5538 5538 5538 5539 5539 5538 5538 5537 5536 5535 5534 5532 5532 5531 5530 5529 5528 5526 5524 5523 5521 5520 5519 5518 5516 5515 5514 5513 5512 5511 5510 5509 5508 5508 5507
5522 5523 5524 5525 5526 5526 5527 5528 5528 5528 5528 5528 5528 5528 5527 5526 5525 5524 5523 5522 5521 5520 5520 5519 5517 5516 5514 5512 5511 5510 5508 5507 5506 5505 5504 5504 5503 5502 5502 5500 5499 5498 5498
5513 5514 5515 5515 5516 5517 5517 5518 5518 5518 5518 5518 5518 5517 5517 5516 5515 5514 5513 5511 5510 5510 5509 5508 5506 5505 5504 5502 5501 5499 5498 5497 5496 5495 5494 5494 5494 5493 5492 5491 5490 5489 5489
5503 5504 5505 5505 5506 5507 5507 5507 5508 5508 5508 5507 5507 5506 5506 5505 5504 5503 5502 5501 5500 5499 5498 5497 5496 5495 5493 5492 5491 5489 5488 5487 5486 5485 5485 5485 5484 5483 5483 5482 5482 5481 5480
5494 5495 5495 5496 5496 5497 5497 5497 5497 5498 5497 5497 5496 5496 5495 5494 5493 5492 5491 5491 5490 5489 5488 5488 5486 5485 5483 5482 5480 5479 5478 5477 5476 5476 5476 5475 5475 5475 5474 5474 5473 5472 5472
5485 5485 5486 5486 5487 5487 5487 5488 5487 5487 5487 5487 5486 5485 5484 5484 5483 5482 5481 5481 5480 5480 5479 5478 5477 5476 5474 5473 5472 5471 5469 5468 5467 5467 5467 5466 5466 5466 5466 5465 5465 5464 5464
5476 5476 5476 5476 5477 5477 5478 5478 5478 5478 5478 5477 5477 5476 5475 5474 5473 5473 5472 5471 5471 5471 5471 5470 5469 5468 5466 5465 5464 5463 5462 5460 5459 5459 5458 5458 5457 5457 5457 5457 5456 5456 5455
5466 5466 5466 5467 5467 5468 5468 5469 5469 5468 5469 5468 5468 5467 5466 5465 5465 5464 5464 5463 5463 5463 5462 5462 5461 5460 5459 5458 5457 5456 5454 5453 5452 5451 5450 5450 5449 5449 5448 5448 5448 5447 5447
5456 5457 5457 5458 5458 5459 5459 5460 5460 5460 5459 5459 5459 5459 5458 5457 5457 5456 5456 5456 5455 5455 5455 5454 5453 5452 5451 5451 5450 5449 5448 5447 5445 5444 5443 5442 5442 5441 5441 5440 5440 5440 5439
5447 5448 5448 5449 5450 5450 5451 5451 5451 5451 5451 5451 5451 5450 5450 5449 5449 5449 5448 5448 5448 5447 5447 5446 5446 5445 5444 5443 5443 5442 5441 5440 5439 5438 5437 5436 5435 5434 5434 5433 5433 5432 5432
5438 5439 5440 5441 5441 5442 5442 5443 5443 5443 5443 5443 5443 5442 5442 5442 5442 5441 5441 5441 5440 5440 5439 5439 5439 5438 5437 5437 5436 5435 5434 5433 5432 5431 5430 5430 5429 5428 5428 5427 5427 5426 5425
5430 5430 5431 5432 5433 5434 5435 5435 5435 5435 5435 5436 5435 5435 5435 5435 5435 5434 5434 5434 5433 5433 5432 5432 5431 5431 5430 5430 5430 5429 5428 5427 5426 5425 5424 5424 5423 5422 5422 5421 5421 5420 5419
5422 5423 5424 5424 5425 5426 5427 5427 5428 5428 5428 5428 5428 5428 5428 5428 5428 5427 5427 5427 5426 5426 5426 5425 5425 5424 5424 5424 5423 5423 5422 5422 5421 5420 5419 5418 5417 5417 5416 5416 5415 5415 5414
5415 5416 5416 5417 5418 5419 5420 5420 5421 5421 5421 5421 5421 5421 5421 5421 5421 5421 5421 5420 5420 5420 5419 5419 5419 5418 5418 5418 5417 5417 5416 5416 5415 5414 5413 5413 5412 5412 5412 5411 5410 5409 5409
5408 5409 5409 5410 5411 5412 5412 5413 5413 5414 5414 5414 5414 5414 5415 5415 5415 5415 5414 5414 5414 5414 5413 5413 5413 5413 5412 5412 5411 5411 5411 5410 5409 5409 5408 5408 5408 5408 5407 5406 5406 5405 5405
5402 5402 5403 5403 5404 5405 5405 5406 5406 5406 5407 5407 5407 5407 5408 5408 5408 5408 5408 5408 5408 5408 5408 5407 5407 5407 5407 5406 5406 5406 5405 5405 5404 5404 5404 5404 5403 5403 5402 5402 5402 5402 5401